When you browse on this site, cookies collect data to enhance your experience and personalize the content and advertising you see.
Visit our Privacy Policy to learn more. By continuing to use the site, you agree to this use of cookies and data.
  • Em Portugal
  • Lista de países
  • Para 7 dias
  • Temperatura da água
  • Mapas de satélite
  • Mapa do tempo
  • Widgets de tempo
  • user-avatar
    Iniciar Sessão

    Previsão horária em Lugi

    Hoje, 26 Abril, Sexta-feira

    Tempo Temperatura Precipitação Vento Pressão Humidade
    00:00 +13°C° 0 mm 0 m/s 745 mmHg 51%
    01:00 +13°C° 0 mm 0 m/s 745 mmHg 53%
    02:00 +12°C° 0 mm 0 m/s 745 mmHg 54%
    03:00 +12°C° 0 mm 0 m/s 745 mmHg 55%
    04:00 +12°C° 0 mm 0 m/s 744 mmHg 56%
    05:00 +11°C° 0 mm 0 m/s 744 mmHg 57%
    06:00 +13°C° 0 mm 0 m/s 744 mmHg 52%
    07:00 +16°C° 0 mm 1 m/s 744 mmHg 47%
    08:00 +19°C° 0 mm 1 m/s 745 mmHg 42%
    09:00 +21°C° 0 mm 1 m/s 744 mmHg 37%
    10:00 +23°C° 0 mm 1 m/s 744 mmHg 32%
    11:00 +24°C° 0 mm 2 m/s 744 mmHg 27%
    12:00 +24°C° 0 mm 2 m/s 744 mmHg 27%
    13:00 +24°C° 0 mm 2 m/s 744 mmHg 28%
    14:00 +24°C° 0 mm 2 m/s 743 mmHg 28%
    15:00 +23°C° 0 mm 2 m/s 743 mmHg 31%
    16:00 +23°C° 0 mm 2 m/s 743 mmHg 35%
    17:00 +22°C° 0 mm 1 m/s 742 mmHg 39%
    18:00 +20°C° 0 mm 1 m/s 742 mmHg 44%
    19:00 +18°C° 0 mm 2 m/s 742 mmHg 48%
    20:00 +16°C° 0 mm 2 m/s 742 mmHg 53%
    21:00 +15°C° 0 mm 1 m/s 741 mmHg 55%
    22:00 +14°C° 0 mm 1 m/s 741 mmHg 57%
    23:00 +13°C° 0 mm 1 m/s 741 mmHg 59%

    Amanhã, 27 Abril, Sábado

    Tempo Temperatura Precipitação Vento Pressão Humidade
    00:00 +13°C° 0 mm 1 m/s 741 mmHg 62%
    01:00 +12°C° 0 mm 1 m/s 740 mmHg 64%
    02:00 +12°C° 0 mm 1 m/s 740 mmHg 67%
    03:00 +12°C° 0 mm 2 m/s 740 mmHg 68%
    04:00 +10°C° 0 mm 2 m/s 740 mmHg 70%
    05:00 +10°C° 0 mm 2 m/s 739 mmHg 72%
    06:00 +13°C° 0 mm 2 m/s 739 mmHg 66%
    07:00 +15°C° 0 mm 2 m/s 739 mmHg 60%
    08:00 +16°C° 0 mm 2 m/s 739 mmHg 54%
    09:00 +18°C° 0 mm 2 m/s 738 mmHg 48%
    10:00 +20°C° 0 mm 2 m/s 738 mmHg 41%
    11:00 +23°C° 0 mm 2 m/s 738 mmHg 35%
    12:00 +23°C° 0 mm 2 m/s 737 mmHg 34%
    13:00 +23°C° 0 mm 2 m/s 737 mmHg 34%
    14:00 +24°C° 0 mm 2 m/s 737 mmHg 33%
    15:00 +23°C° 0 mm 2 m/s 736 mmHg 37%
    16:00 +21°C° 0 mm 2 m/s 736 mmHg 42%
    17:00 +21°C° 0 mm 2 m/s 736 mmHg 47%
    18:00 +19°C° 0.1 mm 2 m/s 736 mmHg 55%
    19:00 +17°C° 0.1 mm 2 m/s 736 mmHg 64%
    20:00 +15°C° 0.1 mm 2 m/s 736 mmHg 72%
    21:00 +14°C° 0.4 mm 2 m/s 736 mmHg 77%
    22:00 +13°C° 0.4 mm 2 m/s 736 mmHg 82%
    23:00 +12°C° 0.4 mm 2 m/s 736 mmHg 87%

    Depois de amanhã, 28 Abril, Domingo

    Tempo Temperatura Precipitação Vento Pressão Humidade
    00:00 +11°C° 0 mm 3 m/s 737 mmHg 88%
    01:00 +10°C° 0 mm 3 m/s 737 mmHg 89%
    02:00 +10°C° 0 mm 4 m/s 737 mmHg 90%
    03:00 +8°C° 0 mm 4 m/s 738 mmHg 88%
    04:00 +8°C° 0 mm 4 m/s 738 mmHg 87%
    05:00 +7°C° 0 mm 4 m/s 739 mmHg 85%
    06:00 +7°C° 0 mm 5 m/s 740 mmHg 80%
    07:00 +7°C° 0 mm 5 m/s 741 mmHg 76%
    08:00 +7°C° 0 mm 5 m/s 742 mmHg 72%
    09:00 +7°C° 0 mm 5 m/s 742 mmHg 63%
    10:00 +8°C° 0 mm 5 m/s 743 mmHg 54%
    11:00 +8°C° 0 mm 5 m/s 743 mmHg 46%
    12:00 +9°C° 0 mm 5 m/s 743 mmHg 41%
    13:00 +9°C° 0 mm 5 m/s 743 mmHg 37%
    14:00 +10°C° 0 mm 5 m/s 744 mmHg 32%
    15:00 +10°C° 0 mm 4 m/s 744 mmHg 32%
    16:00 +10°C° 0 mm 4 m/s 744 mmHg 32%
    17:00 +10°C° 0 mm 4 m/s 744 mmHg 32%
    18:00 +7°C° 0 mm 4 m/s 744 mmHg 37%
    19:00 +5°C° 0 mm 3 m/s 745 mmHg 42%
    20:00 +5°C° 0 mm 2 m/s 746 mmHg 47%
    21:00 +4°C° 0 mm 2 m/s 746 mmHg 52%
    22:00 +3°C° 0 mm 2 m/s 746 mmHg 56%
    23:00 +2°C° 0 mm 2 m/s 747 mmHg 60%

    29 Abril, Segunda-feira

    Tempo Temperatura Precipitação Vento Pressão Humidade
    00:00 +2°C° 0 mm 2 m/s 747 mmHg 63%
    01:00 +1°C° 0 mm 2 m/s 747 mmHg 66%
    02:00 -1°C° 0 mm 2 m/s 747 mmHg 69%
    03:00 -1°C° 0 mm 2 m/s 748 mmHg 68%
    04:00 -1°C° 0 mm 2 m/s 748 mmHg 68%
    05:00 -1°C° 0 mm 2 m/s 748 mmHg 67%
    06:00 +1°C° 0 mm 2 m/s 748 mmHg 59%
    07:00 +2°C° 0 mm 3 m/s 748 mmHg 50%
    08:00 +4°C° 0 mm 3 m/s 749 mmHg 42%
    09:00 +5°C° 0 mm 3 m/s 748 mmHg 38%
    10:00 +7°C° 0 mm 3 m/s 748 mmHg 34%
    11:00 +9°C° 0 mm 2 m/s 748 mmHg 31%
    12:00 +9°C° 0 mm 2 m/s 748 mmHg 29%
    13:00 +10°C° 0 mm 2 m/s 747 mmHg 27%
    14:00 +12°C° 0 mm 2 m/s 747 mmHg 25%
    15:00 +12°C° 0 mm 2 m/s 747 mmHg 26%
    16:00 +12°C° 0 mm 2 m/s 746 mmHg 27%
    17:00 +10°C° 0 mm 2 m/s 746 mmHg 27%
    18:00 +9°C° 0 mm 1 m/s 746 mmHg 33%
    19:00 +8°C° 0 mm 1 m/s 746 mmHg 39%
    20:00 +6°C° 0 mm 1 m/s 746 mmHg 45%
    21:00 +5°C° 0 mm 1 m/s 746 mmHg 47%
    22:00 +4°C° 0 mm 1 m/s 746 mmHg 50%
    23:00 +3°C° 0 mm 1 m/s 745 mmHg 53%

    30 Abril, Terça-feira

    Tempo Temperatura Precipitação Vento Pressão Humidade
    00:00 +3°C° 0 mm 1 m/s 745 mmHg 54%
    01:00 +3°C° 0 mm 1 m/s 745 mmHg 55%
    02:00 +2°C° 0 mm 1 m/s 745 mmHg 56%
    03:00 +2°C° 0 mm 1 m/s 745 mmHg 56%
    04:00 +2°C° 0 mm 1 m/s 745 mmHg 56%
    05:00 +2°C° 0 mm 1 m/s 745 mmHg 56%
    06:00 +5°C° 0 mm 1 m/s 745 mmHg 49%
    07:00 +6°C° 0 mm 0 m/s 744 mmHg 43%
    08:00 +9°C° 0 mm 0 m/s 744 mmHg 37%
    09:00 +11°C° 0 mm 0 m/s 744 mmHg 34%
    10:00 +12°C° 0 mm 0 m/s 744 mmHg 30%
    11:00 +14°C° 0 mm 0 m/s 744 mmHg 27%
    12:00 +14°C° 0 mm 0 m/s 743 mmHg 28%
    13:00 +14°C° 0 mm 0 m/s 743 mmHg 28%
    14:00 +14°C° 0 mm 1 m/s 743 mmHg 28%
    15:00 +14°C° 0 mm 1 m/s 742 mmHg 30%
    16:00 +13°C° 0 mm 1 m/s 742 mmHg 31%
    17:00 +13°C° 0 mm 1 m/s 741 mmHg 33%
    18:00 +11°C° 0 mm 1 m/s 741 mmHg 38%
    19:00 +10°C° 0 mm 1 m/s 741 mmHg 43%
    20:00 +9°C° 0 mm 1 m/s 741 mmHg 48%
    21:00 +8°C° 0 mm 1 m/s 741 mmHg 49%
    22:00 +8°C° 0 mm 1 m/s 741 mmHg 50%
    23:00 +7°C° 0 mm 1 m/s 741 mmHg 51%

    1 Maio, Quarta-feira

    Tempo Temperatura Precipitação Vento Pressão Humidade
    00:00 +7°C° 0 mm 1 m/s 741 mmHg 52%
    01:00 +7°C° 0 mm 1 m/s 741 mmHg 52%
    02:00 +6°C° 0 mm 1 m/s 741 mmHg 53%
    03:00 +6°C° 0 mm 1 m/s 740 mmHg 53%
    04:00 +6°C° 0 mm 1 m/s 740 mmHg 54%
    05:00 +6°C° 0 mm 1 m/s 740 mmHg 55%
    06:00 +7°C° 0 mm 1 m/s 740 mmHg 50%
    07:00 +9°C° 0 mm 1 m/s 740 mmHg 45%
    08:00 +11°C° 0 mm 1 m/s 739 mmHg 40%
    09:00 +12°C° 0 mm 2 m/s 739 mmHg 37%
    10:00 +13°C° 0 mm 2 m/s 738 mmHg 34%
    11:00 +13°C° 0 mm 2 m/s 738 mmHg 31%
    12:00 +14°C° 0 mm 2 m/s 737 mmHg 31%
    13:00 +14°C° 0 mm 2 m/s 737 mmHg 30%
    14:00 +15°C° 0 mm 2 m/s 736 mmHg 30%
    15:00 +14°C° 0 mm 2 m/s 736 mmHg 31%
    16:00 +14°C° 0 mm 2 m/s 735 mmHg 33%
    17:00 +13°C° 0 mm 3 m/s 735 mmHg 34%
    18:00 +12°C° 0 mm 2 m/s 735 mmHg 39%
    19:00 +10°C° 0 mm 2 m/s 734 mmHg 44%
    20:00 +9°C° 0 mm 2 m/s 734 mmHg 49%
    21:00 +8°C° 0 mm 2 m/s 733 mmHg 51%
    22:00 +8°C° 0 mm 2 m/s 733 mmHg 53%
    23:00 +7°C° 0 mm 2 m/s 733 mmHg 55%
    Mostrar mais